Weather History for Marshfield, WI

Change the Weather History Date:

Friday, August 9, 2013

  Actual Average Record
Temperature  
Mean Temperature 66 °F -  
Max Temperature 75 °F 80 °F 96 °F (1936)
Min Temperature 57 °F 56 °F 39 °F (1927)
Cooling Degree Days 1    
Growing Degree Days 16 (Base 50)    
Moisture  
Dew Point 53 °F    
Average Humidity 65    
Maximum Humidity 90    
Minimum Humidity 38    
Precipitation  
Precipitation 0.00 in - - ()
Sea Level Pressure  
Sea Level Pressure 30.01 in    
Wind  
Wind Speed 6 mph (NW)    
Max Wind Speed 16 mph    
Max Gust Speed 20 mph    
Visibility 10 miles    
Events      
Averages and records for this station are not official NWS values.
T = Trace of Precipitation, MM = Missing Value Source: NWS Daily Summary

Daily Weather History Graph

Daily Weather History Graph

Search for Another Location

Airport:

Trip Planner

Search our weather history database for the weather conditions in past years. The results will help you decide how hot, cold, wet, or windy it might be!

Date:

Astronomy

Aug. 09, 2013 Rise Set
Actual Time 5:56 AM CDT 8:15 PM CDT
Civil Twilight 5:24 AM CDT 8:47 PM CDT
Nautical Twilight 4:43 AM CDT 9:27 PM CDT
Astronomical Twilight 3:58 AM CDT 10:12 PM CDT
Moon 8:52 AM CDT (8/9) 9:13 PM CDT (8/9)
Length of Visible Light 15h 23m
Length of Day
14h 18m
Waxing Crescent, 8% of the Moon is Illuminated
Aug 9
Waxing Crescent
Aug 14
First Quarter
Aug 20
Full
Aug 28
Last Quarter
Sep 5
New

Hourly Weather History & Observations

Time (CDT) Temp. Dew Point Humidity Pressure Visibility Wind Dir Wind Speed Gust Speed Precip Events Conditions
12:54 AM 59.0 °F 54.0 °F 83% 30.00 in 10.0 mi WNW 4.6 mph - N/A   Clear
1:54 AM 61.0 °F 54.0 °F 78% 30.00 in 10.0 mi Calm Calm - N/A   Overcast
2:54 AM 60.1 °F 54.0 °F 80% 29.99 in 10.0 mi WNW 3.5 mph - N/A   Mostly Cloudy
3:54 AM 60.1 °F 54.0 °F 80% 29.98 in 10.0 mi WNW 3.5 mph - N/A   Overcast
4:54 AM 59.0 °F 55.0 °F 87% 29.97 in 10.0 mi WNW 4.6 mph - N/A   Overcast
5:54 AM 57.9 °F 55.0 °F 90% 29.98 in 10.0 mi WNW 6.9 mph - N/A   Clear
6:54 AM 60.1 °F 55.9 °F 86% 29.99 in 10.0 mi WNW 5.8 mph - N/A   Overcast
7:54 AM 62.1 °F 57.9 °F 86% 30.00 in 10.0 mi WNW 6.9 mph - N/A   Clear
8:54 AM 66.0 °F 59.0 °F 78% 30.00 in 10.0 mi NW 6.9 mph - N/A   Clear
9:54 AM 68.0 °F 59.0 °F 73% 30.01 in 10.0 mi NW 6.9 mph - N/A   Clear
10:54 AM 71.1 °F 55.9 °F 59% 30.01 in 10.0 mi NW 10.4 mph - N/A   Partly Cloudy
11:54 AM 73.0 °F 54.0 °F 51% 30.00 in 10.0 mi NW 16.1 mph - N/A   Partly Cloudy
12:54 PM 72.0 °F 51.1 °F 48% 30.00 in 10.0 mi NW 11.5 mph - N/A   Scattered Clouds
1:54 PM 75.0 °F 51.1 °F 43% 30.00 in 10.0 mi WNW 13.8 mph - N/A   Scattered Clouds
2:54 PM 75.0 °F 48.9 °F 40% 30.00 in 10.0 mi WNW 10.4 mph 19.6 mph N/A   Scattered Clouds
3:54 PM 75.0 °F 48.0 °F 38% 30.01 in 10.0 mi NW 12.7 mph - N/A   Scattered Clouds
4:54 PM 73.0 °F 48.9 °F 42% 30.01 in 10.0 mi WNW 11.5 mph 17.3 mph N/A   Clear
5:54 PM 73.9 °F 48.9 °F 41% 30.02 in 10.0 mi NW 12.7 mph 17.3 mph N/A   Partly Cloudy
6:54 PM 72.0 °F 48.9 °F 44% 30.03 in 10.0 mi NW 6.9 mph - N/A   Partly Cloudy
7:54 PM 64.9 °F 51.1 °F 61% 30.04 in 10.0 mi NNW 6.9 mph - N/A   Clear
8:54 PM 64.0 °F 52.0 °F 65% 30.06 in 10.0 mi NW 3.5 mph - N/A   Overcast
9:54 PM 63.0 °F 53.1 °F 70% 30.07 in 10.0 mi NNW 5.8 mph - N/A   Overcast
10:54 PM 64.0 °F 51.1 °F 63% 30.08 in 10.0 mi North 4.6 mph - N/A   Overcast
11:54 PM 63.0 °F 51.1 °F 65% 30.09 in 10.0 mi North 3.5 mph - N/A   Overcast